Location: Poprad
(49.0500°N, 20.3000°E)
Time: 21:59:17
(UTC+02:00)

NANOSAT C BR1 - Visible Passes

Search period start: 22 April 2024 00:00
Search period end: 02 May 2024 00:00
Orbit: 556 x 566 km, 98.1° (Epoch: 21 April)

Date Brightness Start Highest point End Pass type
(mag) Time Alt. Az. Time Alt. Az. Time Alt. Az.
22 Apr ? 04:16:46 10° NNE 04:20:41 49° E 04:24:36 10° S visible
23 Apr ? 04:15:53 10° NNE 04:19:48 48° E 04:23:42 10° S visible
24 Apr ? 04:14:57 10° NNE 04:18:52 46° E 04:22:45 10° S visible
25 Apr ? 04:14:00 10° NNE 04:17:53 45° E 04:21:45 10° S visible
26 Apr ? 04:12:59 10° NNE 04:16:52 44° E 04:20:43 10° S visible
27 Apr ? 04:11:56 10° NNE 04:15:47 42° E 04:19:38 10° S visible
28 Apr ? 04:10:50 10° NNE 04:14:40 41° E 04:18:29 10° S visible
29 Apr ? 04:09:41 10° NNE 04:13:31 40° E 04:17:18 10° S visible
30 Apr ? 04:08:30 10° NNE 04:12:18 38° E 04:16:04 10° SSE visible
01 May ? 04:07:17 10° NNE 04:11:03 37° E 04:14:47 10° SSE visible
